When you browse on this site, cookies collect data to enhance your experience and personalize the content and advertising you see.
Visit our Privacy Policy to learn more. By continuing to use the site, you agree to this use of cookies and data.
  • In Österreich
  • Länderverzeichnis
  • Für 7 Tage
  • Wassertemperatur
  • Wetterkarte
  • News
  • Widgets
  • user-avatar
    Anmelden

    Stündliche Wetter Orizatlán

    Heute, 28 Januar, Dienstag

    Zeit Temperatur Niederschläge Wind Luftdruck Luftfeuchtigkeit
    00:00 +19°C° 0 mm 0 m/S 742 mmHg 94%
    01:00 +19°C° 0 mm 0 m/S 742 mmHg 95%
    02:00 +19°C° 0 mm 0 m/S 741 mmHg 95%
    03:00 +19°C° 0 mm 0 m/S 741 mmHg 93%
    04:00 +19°C° 0 mm 0 m/S 742 mmHg 92%
    05:00 +19°C° 0 mm 0 m/S 742 mmHg 91%
    06:00 +20°C° 0 mm 0 m/S 742 mmHg 88%
    07:00 +21°C° 0 mm 0 m/S 742 mmHg 85%
    08:00 +22°C° 0 mm 0 m/S 742 mmHg 82%
    09:00 +23°C° 0 mm 0 m/S 742 mmHg 76%
    10:00 +27°C° 0 mm 1 m/S 742 mmHg 70%
    11:00 +29°C° 0 mm 1 m/S 742 mmHg 64%
    12:00 +29°C° 0 mm 1 m/S 741 mmHg 62%
    13:00 +30°C° 0 mm 1 m/S 740 mmHg 60%
    14:00 +30°C° 0 mm 1 m/S 739 mmHg 57%
    15:00 +29°C° 0 mm 1 m/S 739 mmHg 65%
    16:00 +28°C° 0 mm 1 m/S 740 mmHg 72%
    17:00 +26°C° 0 mm 1 m/S 740 mmHg 79%
    18:00 +25°C° 0.2 mm 1 m/S 741 mmHg 84%
    19:00 +24°C° 0.2 mm 1 m/S 742 mmHg 89%
    20:00 +21°C° 0.2 mm 0 m/S 743 mmHg 93%
    21:00 +23°C° 0.7 mm 1 m/S 743 mmHg 94%
    22:00 +22°C° 0.7 mm 1 m/S 744 mmHg 94%
    23:00 +22°C° 0.7 mm 1 m/S 744 mmHg 94%

    Morgen, 29 Januar, Mittwoch

    Zeit Temperatur Niederschläge Wind Luftdruck Luftfeuchtigkeit
    00:00 +22°C° 0.4 mm 1 m/S 744 mmHg 94%
    01:00 +22°C° 0.4 mm 1 m/S 744 mmHg 93%
    02:00 +22°C° 0.4 mm 1 m/S 744 mmHg 92%
    03:00 +21°C° 0.4 mm 1 m/S 744 mmHg 93%
    04:00 +20°C° 0.4 mm 2 m/S 745 mmHg 93%
    05:00 +20°C° 0.4 mm 2 m/S 745 mmHg 93%
    06:00 +19°C° 0.5 mm 2 m/S 746 mmHg 92%
    07:00 +19°C° 0.5 mm 1 m/S 746 mmHg 90%
    08:00 +19°C° 0.5 mm 1 m/S 747 mmHg 89%
    09:00 +19°C° 0 mm 1 m/S 747 mmHg 79%
    10:00 +20°C° 0 mm 1 m/S 746 mmHg 69%
    11:00 +21°C° 0 mm 1 m/S 746 mmHg 60%
    12:00 +21°C° 0 mm 1 m/S 745 mmHg 60%
    13:00 +22°C° 0 mm 1 m/S 744 mmHg 61%
    14:00 +21°C° 0 mm 2 m/S 743 mmHg 61%
    15:00 +20°C° 0 mm 2 m/S 743 mmHg 67%
    16:00 +20°C° 0 mm 2 m/S 743 mmHg 72%
    17:00 +19°C° 0 mm 2 m/S 743 mmHg 78%
    18:00 +20°C° 0 mm 1 m/S 743 mmHg 78%
    19:00 +19°C° 0 mm 1 m/S 744 mmHg 79%
    20:00 +19°C° 0 mm 1 m/S 744 mmHg 79%
    21:00 +18°C° 0 mm 1 m/S 744 mmHg 80%
    22:00 +18°C° 0 mm 1 m/S 744 mmHg 81%
    23:00 +15°C° 0 mm 0 m/S 744 mmHg 83%

    übermorgen, 30 Januar, Donnerstag

    Zeit Temperatur Niederschläge Wind Luftdruck Luftfeuchtigkeit
    00:00 +15°C° 0 mm 0 m/S 744 mmHg 84%
    01:00 +15°C° 0 mm 0 m/S 743 mmHg 86%
    02:00 +14°C° 0 mm 0 m/S 742 mmHg 87%
    03:00 +14°C° 0 mm 0 m/S 742 mmHg 88%
    04:00 +14°C° 0 mm 0 m/S 742 mmHg 89%
    05:00 +15°C° 0 mm 1 m/S 742 mmHg 90%
    06:00 +15°C° 0 mm 0 m/S 742 mmHg 85%
    07:00 +16°C° 0 mm 0 m/S 743 mmHg 81%
    08:00 +17°C° 0 mm 0 m/S 743 mmHg 77%
    09:00 +19°C° 0 mm 0 m/S 743 mmHg 72%
    10:00 +22°C° 0 mm 1 m/S 742 mmHg 68%
    11:00 +24°C° 0 mm 1 m/S 742 mmHg 63%
    12:00 +24°C° 0 mm 2 m/S 741 mmHg 64%
    13:00 +25°C° 0 mm 2 m/S 740 mmHg 65%
    14:00 +25°C° 0 mm 2 m/S 739 mmHg 65%
    15:00 +24°C° 0 mm 2 m/S 739 mmHg 72%
    16:00 +23°C° 0 mm 1 m/S 740 mmHg 78%
    17:00 +22°C° 0 mm 1 m/S 740 mmHg 84%
    18:00 +21°C° 0 mm 1 m/S 740 mmHg 84%
    19:00 +21°C° 0 mm 1 m/S 741 mmHg 85%
    20:00 +21°C° 0 mm 1 m/S 742 mmHg 85%
    21:00 +20°C° 0 mm 1 m/S 741 mmHg 83%
    22:00 +20°C° 0 mm 1 m/S 741 mmHg 81%
    23:00 +20°C° 0 mm 1 m/S 741 mmHg 79%

    31 Januar, Freitag

    Zeit Temperatur Niederschläge Wind Luftdruck Luftfeuchtigkeit
    00:00 +20°C° 0 mm 1 m/S 741 mmHg 82%
    01:00 +19°C° 0 mm 1 m/S 741 mmHg 84%
    02:00 +19°C° 0 mm 1 m/S 741 mmHg 87%
    03:00 +18°C° 0 mm 1 m/S 741 mmHg 88%
    04:00 +18°C° 0 mm 1 m/S 742 mmHg 88%
    05:00 +16°C° 0 mm 1 m/S 742 mmHg 89%
    06:00 +18°C° 0 mm 1 m/S 743 mmHg 88%
    07:00 +19°C° 0 mm 1 m/S 744 mmHg 88%
    08:00 +19°C° 0 mm 2 m/S 745 mmHg 87%
    09:00 +20°C° 0 mm 2 m/S 745 mmHg 80%
    10:00 +21°C° 0 mm 3 m/S 746 mmHg 73%
    11:00 +24°C° 0 mm 3 m/S 746 mmHg 65%
    12:00 +22°C° 0.1 mm 3 m/S 745 mmHg 71%
    13:00 +21°C° 0.1 mm 3 m/S 745 mmHg 76%
    14:00 +20°C° 0.1 mm 2 m/S 745 mmHg 81%
    15:00 +19°C° 0.2 mm 2 m/S 745 mmHg 84%
    16:00 +18°C° 0.2 mm 2 m/S 746 mmHg 87%
    17:00 +17°C° 0.2 mm 2 m/S 747 mmHg 89%
    18:00 +17°C° 0.3 mm 2 m/S 748 mmHg 89%
    19:00 +17°C° 0.3 mm 2 m/S 749 mmHg 89%
    20:00 +16°C° 0.3 mm 1 m/S 750 mmHg 88%
    21:00 +16°C° 0.6 mm 1 m/S 750 mmHg 90%
    22:00 +16°C° 0.6 mm 1 m/S 750 mmHg 92%
    23:00 +15°C° 0.6 mm 1 m/S 750 mmHg 93%

    1 Februar, Samstag

    Zeit Temperatur Niederschläge Wind Luftdruck Luftfeuchtigkeit
    00:00 +15°C° 0.1 mm 1 m/S 750 mmHg 93%
    01:00 +15°C° 0.1 mm 1 m/S 750 mmHg 92%
    02:00 +15°C° 0.1 mm 1 m/S 750 mmHg 92%
    03:00 +15°C° 0 mm 1 m/S 750 mmHg 90%
    04:00 +15°C° 0 mm 1 m/S 750 mmHg 89%
    05:00 +15°C° 0 mm 1 m/S 751 mmHg 88%
    06:00 +15°C° 0 mm 1 m/S 752 mmHg 87%
    07:00 +15°C° 0 mm 1 m/S 752 mmHg 86%
    08:00 +14°C° 0 mm 0 m/S 753 mmHg 85%
    09:00 +15°C° 0 mm 1 m/S 753 mmHg 81%
    10:00 +16°C° 0 mm 1 m/S 753 mmHg 77%
    11:00 +16°C° 0 mm 1 m/S 753 mmHg 73%
    12:00 +18°C° 0 mm 1 m/S 752 mmHg 72%
    13:00 +18°C° 0 mm 1 m/S 752 mmHg 71%
    14:00 +19°C° 0 mm 1 m/S 751 mmHg 69%
    15:00 +16°C° 0 mm 0 m/S 751 mmHg 73%
    16:00 +16°C° 0 mm 0 m/S 751 mmHg 76%
    17:00 +15°C° 0 mm 0 m/S 751 mmHg 79%
    18:00 +15°C° 0 mm 0 m/S 752 mmHg 79%
    19:00 +15°C° 0 mm 0 m/S 752 mmHg 80%
    20:00 +14°C° 0 mm 0 m/S 753 mmHg 80%
    21:00 +14°C° 0 mm 0 m/S 752 mmHg 80%
    22:00 +14°C° 0 mm 0 m/S 752 mmHg 80%
    23:00 +14°C° 0 mm 0 m/S 752 mmHg 80%

    2 Februar, Sonntag

    Zeit Temperatur Niederschläge Wind Luftdruck Luftfeuchtigkeit
    00:00 +14°C° 0 mm 0 m/S 751 mmHg 82%
    01:00 +13°C° 0 mm 0 m/S 751 mmHg 83%
    02:00 +13°C° 0 mm 0 m/S 750 mmHg 84%
    03:00 +13°C° 0 mm 0 m/S 750 mmHg 85%
    04:00 +13°C° 0 mm 0 m/S 749 mmHg 86%
    05:00 +12°C° 0 mm 0 m/S 749 mmHg 86%
    06:00 +13°C° 0 mm 0 m/S 749 mmHg 83%
    07:00 +14°C° 0 mm 0 m/S 750 mmHg 80%
    08:00 +15°C° 0 mm 0 m/S 750 mmHg 77%
    09:00 +17°C° 0 mm 0 m/S 750 mmHg 73%
    10:00 +20°C° 0 mm 1 m/S 749 mmHg 69%
    11:00 +21°C° 0 mm 1 m/S 749 mmHg 65%
    12:00 +21°C° 0 mm 1 m/S 748 mmHg 66%
    13:00 +21°C° 0 mm 2 m/S 746 mmHg 68%
    14:00 +21°C° 0 mm 2 m/S 745 mmHg 69%
    15:00 +21°C° 0 mm 1 m/S 745 mmHg 74%
    16:00 +20°C° 0 mm 1 m/S 746 mmHg 79%
    17:00 +20°C° 0 mm 1 m/S 746 mmHg 85%
    18:00 +19°C° 0.1 mm 1 m/S 746 mmHg 87%
    19:00 +18°C° 0.1 mm 1 m/S 747 mmHg 90%
    20:00 +16°C° 0.1 mm 0 m/S 747 mmHg 93%
    21:00 +18°C° 0 mm 1 m/S 747 mmHg 92%
    22:00 +18°C° 0 mm 1 m/S 747 mmHg 91%
    23:00 +18°C° 0 mm 1 m/S 746 mmHg 91%
    Mehr zeigen